Weather reports worldwide

Advertisment
Ronchi Dei Legionari, Italy (16108): temperature & dewpoint: 24.10.2020 11:00:00 - 30.10.2020 11:00:00 (CET)Ronchi Dei Legionari, Italy (16108): wind speed: 24.10.2020 11:00:00 - 30.10.2020 11:00:00 (CET)Ronchi Dei Legionari, Italy (16108): wind direction: 24.10.2020 11:00:00 - 30.10.2020 11:00:00 (CET)Ronchi Dei Legionari, Italy (16108): reduced air pressure: 24.10.2020 11:00:00 - 30.10.2020 11:00:00 (CET)Ronchi Dei Legionari, Italy (16108): visibility: 24.10.2020 11:00:00 - 30.10.2020 11:00:00 (CET)Ronchi Dei Legionari, Italy (16108): precipitation: 24.10.2020 11:00:00 - 30.10.2020 11:00:00 (CET)
Date & Time tt [°C] td [°C] ff [km/h] ff [kn] dd ppp [hPa] vv [km] rr [mm]
30.10.2020 11:00:00 16,0 12,0 9 5 S - 10 -
30.10.2020 10:00:00 15,6 11,3 5 3 ESE 1023,7 9 0,0
30.10.2020 09:00:00 12,0 10,0 2 1 - - 10 -
30.10.2020 08:00:00 9,0 9,0 5 3 N - 10 -
30.10.2020 07:00:00 7,0 6,9 4 2 N 1022,5 10 -
30.10.2020 06:00:00 8,0 8,0 2 1 - - 2,4 -
30.10.2020 05:00:00 9,0 9,0 8 4 N - 10 -
30.10.2020 04:00:00 8,9 8,6 5 3 N 1022,1 10 0,0
30.10.2020 03:00:00 9,0 9,0 2 1 - - 10 -
30.10.2020 02:00:00 10,0 9,0 5 3 N - 10 -
30.10.2020 01:00:00 9,4 9,2 5 3 NNE 1022,1 10 -
30.10.2020 00:00:00 8,0 8,0 5 3 N - 10 -
29.10.2020 23:00:00 7,0 7,0 2 1 - - 10 -
29.10.2020 22:00:00 7,4 7,4 2 1 E 1021,8 6 0,0
29.10.2020 21:00:00 9,0 9,0 2 1 - - 4,7 -
29.10.2020 20:00:00 10,0 9,0 4 2 E - 2,0 -
29.10.2020 19:00:00 9,9 9,1 8 4 ESE 1020,6 10 -
29.10.2020 18:00:00 12,0 10,0 5 3 SSE - 10 -
29.10.2020 17:00:00 15,0 11,0 2 1 SW - 10 -
29.10.2020 16:00:00 14,9 11,5 5 3 WSW 1018,5 10 0,0
29.10.2020 15:00:00 16,0 11,0 8 4 WSW - 10 -
29.10.2020 14:00:00 17,0 10,0 9 5 W - 10 -
29.10.2020 13:00:00 17,1 9,0 5 3 W 1018,1 10 -
29.10.2020 12:00:00 16,0 10,0 5 3 SSE - 10 -
29.10.2020 11:00:00 14,0 11,0 4 2 - - 10 -
29.10.2020 10:00:00 12,0 11,0 5 3 NNE 1018,7 10 0,0
29.10.2020 09:00:00 11,0 10,0 2 1 - - 10 -
29.10.2020 08:00:00 8,0 8,0 4 2 - - 10 -
29.10.2020 07:00:00 6,4 6,4 4 2 - 1017,6 10 -
29.10.2020 06:00:00 7,0 7,0 5 3 NE - 10 -
29.10.2020 05:00:00 6,0 6,0 5 3 NW - 10 -
29.10.2020 04:00:00 6,6 6,6 4 2 NNE 1016,8 4,6 0,0
29.10.2020 03:00:00 6,0 6,0 4 2 - - 10 -
29.10.2020 02:00:00 6,0 6,0 4 2 NE - 10 -
29.10.2020 01:00:00 4,7 4,7 5 3 E 1017,6 10 -
29.10.2020 00:00:00 7,0 7,0 4 2 NNE - 0,6 -
28.10.2020 23:00:00 6,0 6,0 2 1 - - 0,4 -
28.10.2020 22:00:00 8,0 8,0 2 1 - 1018,1 10 0,0
28.10.2020 21:00:00 8,0 8,0 5 3 N - 10 -
28.10.2020 20:00:00 9,0 9,0 2 1 - - 10 -
28.10.2020 19:00:00 10,2 9,7 5 3 E 1017,5 10 -
28.10.2020 18:00:00 12,0 10,0 2 1 - - 10 -
28.10.2020 17:00:00 15,0 11,0 5 3 WSW - 10 -
28.10.2020 16:00:00 16,1 10,7 5 3 WSW 1016,6 10 0,0
28.10.2020 15:00:00 17,0 11,0 9 5 W - 10 -
28.10.2020 14:00:00 17,0 11,0 8 4 WNW - 10 -
28.10.2020 13:00:00 17,7 10,3 9 5 NW 1017,0 10 -
28.10.2020 12:00:00 17,0 10,0 8 4 NW - 10 -
28.10.2020 11:00:00 16,0 10,0 4 2 - - 10 -
28.10.2020 10:00:00 15,1 10,2 2 1 - 1017,4 10 0,0
28.10.2020 09:00:00 12,0 10,0 4 2 - - 10 -
28.10.2020 08:00:00 9,0 9,0 4 2 - - 10 -
28.10.2020 07:00:00 5,9 5,9 4 2 - 1015,8 0,2 -
28.10.2020 06:00:00 6,0 6,0 4 2 N - 10 -
28.10.2020 05:00:00 7,0 7,0 5 3 NNE - 10 -
28.10.2020 04:00:00 5,9 5,9 5 3 N 1015,5 10 0,0
28.10.2020 03:00:00 7,0 7,0 5 3 NNE - 10 -
28.10.2020 02:00:00 8,0 8,0 5 3 ESE - 10 -
28.10.2020 01:00:00 7,3 7,3 2 1 - 1015,3 0,4 -
28.10.2020 00:00:00 8,0 8,0 2 1 - - 3,1 -
27.10.2020 23:00:00 10,0 9,0 8 4 N - 9 -
27.10.2020 22:00:00 9,1 8,9 4 2 - 1014,7 4,3 0,0
27.10.2020 21:00:00 11,0 11,0 8 4 E - 10 -
27.10.2020 20:00:00 11,0 11,0 5 3 ENE - 10 -
27.10.2020 19:00:00 11,9 11,1 5 3 ENE 1013,2 10 -
27.10.2020 18:00:00 14,0 12,0 9 5 E - 10 -
27.10.2020 17:00:00 15,0 12,0 5 3 SSW - 10 -
27.10.2020 16:00:00 16,7 11,9 9 5 S 1010,8 10 0,0
27.10.2020 15:00:00 17,0 11,0 13 7 S - 10 -
27.10.2020 14:00:00 17,0 11,0 11 6 S - 10 -
27.10.2020 13:00:00 17,6 10,3 18 10 SSE 1009,7 10 -
27.10.2020 12:00:00 17,0 10,0 9 5 S - 10 -
27.10.2020 11:00:00 16,0 12,0 9 5 SSE - 10 -
27.10.2020 10:00:00 16,3 13,1 9 5 SSE 1008,1 10 0,0
27.10.2020 09:00:00 16,0 15,0 5 3 SSW - 10 -
27.10.2020 08:00:00 16,0 15,0 15 8 SSE - 10 -
27.10.2020 07:00:00 15,4 14,2 18 10 S 1005,7 10 -
27.10.2020 06:00:00 15,0 14,0 5 3 - - 10 -
27.10.2020 05:00:00 15,0 14,0 5 3 NNE - 10 -
27.10.2020 04:00:00 16,5 13,6 21 11 S 1005,4 10 0,0
27.10.2020 03:00:00 17,0 15,0 8 4 S - 10 -
27.10.2020 02:00:00 18,0 14,0 22 12 SSE - 10 -
27.10.2020 01:00:00 17,7 13,7 18 10 SE 1006,1 10 -
27.10.2020 00:00:00 18,0 14,0 21 11 SE - 10 -
26.10.2020 23:00:00 17,0 13,0 13 7 SE - 10 -
26.10.2020 22:00:00 17,0 13,5 16 9 SE 1007,3 10 0,0
26.10.2020 21:00:00 17,0 13,0 16 9 SE - 10 -
26.10.2020 20:00:00 17,0 13,0 13 7 SSE - 10 -
26.10.2020 19:00:00 17,1 13,0 16 9 SE 1007,4 10 -
26.10.2020 18:00:00 17,0 13,0 13 7 SE - 10 -
26.10.2020 17:00:00 18,0 13,0 16 9 SSE - 10 -
26.10.2020 16:00:00 18,9 12,0 11 6 S 1007,8 10 0,0
26.10.2020 15:00:00 19,0 12,0 18 10 S - 10 -
26.10.2020 14:00:00 20,0 13,0 26 14 SSW - 10 -
26.10.2020 13:00:00 19,2 13,8 24 13 SSW 1009,5 10 -
26.10.2020 12:00:00 19,0 14,0 29 16 SSW - 10 -
26.10.2020 11:00:00 19,0 14,0 21 11 S - 10 -
26.10.2020 10:00:00 17,4 13,7 13 7 SSE 1010,4 10 0,0
26.10.2020 09:00:00 18,0 14,0 9 5 S - 10 -
26.10.2020 08:00:00 16,0 14,0 8 4 ESE - 10 -
26.10.2020 07:00:00 14,9 13,8 5 3 SSE 1010,6 10 -
26.10.2020 06:00:00 14,0 14,0 2 1 - - 10 -
26.10.2020 05:00:00 15,0 14,0 8 4 ESE - 10 -
26.10.2020 04:00:00 15,2 14,5 5 3 SE 1011,3 10 0,0
26.10.2020 03:00:00 15,0 15,0 8 4 SE - 9 -
26.10.2020 02:00:00 15,0 15,0 5 3 SSE - 9 -
26.10.2020 01:00:00 15,1 14,3 8 4 S 1012,8 10 -
26.10.2020 00:00:00 15,0 14,0 9 5 S - 10 -
25.10.2020 23:00:00 15,0 14,0 9 5 SSE - 10 -
25.10.2020 22:00:00 14,7 13,6 9 5 SSE 1013,7 10 0,0
25.10.2020 21:00:00 13,0 13,0 5 3 SSE - 9 -
25.10.2020 20:00:00 13,0 13,0 8 4 SSE - 9 -
25.10.2020 19:00:00 13,4 12,8 5 3 S 1013,6 9 -
25.10.2020 18:00:00 15,0 14,0 8 4 SW - 10 -
25.10.2020 17:00:00 17,0 13,0 9 5 SW - 10 -
25.10.2020 16:00:00 18,4 12,9 13 7 SW 1013,1 10 0,0
25.10.2020 15:00:00 19,0 13,0 15 8 WSW - 10 -
25.10.2020 14:00:00 19,0 13,0 9 5 W - 10 -
25.10.2020 13:00:00 19,7 12,5 9 5 WNW 1014,1 10 -
25.10.2020 12:00:00 19,0 13,0 8 4 NW - 10 -
25.10.2020 11:00:00 19,0 12,0 4 2 - - 10 -
25.10.2020 10:00:00 16,8 13,4 4 2 - 1015,5 10 0,0
25.10.2020 09:00:00 15,0 14,0 2 1 - - 10 -
25.10.2020 08:00:00 12,0 12,0 2 1 N - 10 -
25.10.2020 07:00:00 10,9 10,9 8 4 N 1015,1 10 -
25.10.2020 06:00:00 11,0 11,0 4 2 - - 5 -
25.10.2020 05:00:00 12,0 12,0 4 2 NE - 10 -
25.10.2020 04:00:00 13,3 13,1 4 2 - 1014,8 10 0,0
25.10.2020 03:00:00 13,0 13,0 8 4 N - 10 -
25.10.2020 02:00:00 14,0 14,0 2 1 - - 10 -
25.10.2020 01:00:00 - - - - - - - -
25.10.2020 00:00:00 14,0 14,0 9 5 NNE - 10 -
24.10.2020 23:00:00 14,0 14,0 4 2 N - 10 -
24.10.2020 22:00:00 14,3 14,1 4 2 - 1016,3 10 0,0
24.10.2020 21:00:00 15,0 15,0 8 4 SE - 10 -
24.10.2020 20:00:00 15,0 15,0 2 1 - - 5 -
24.10.2020 19:00:00 14,7 14,6 2 1 - 1015,8 9 -
24.10.2020 18:00:00 15,0 14,0 4 2 - - 0,9 -
24.10.2020 17:00:00 16,0 15,0 4 2 - - 10 -
24.10.2020 16:00:00 16,5 14,9 9 5 SSW 1015,0 10 0,0
24.10.2020 15:00:00 17,0 15,0 11 6 SW - 10 -
24.10.2020 14:00:00 19,0 16,0 11 6 S - 10 -
24.10.2020 13:00:00 19,6 15,7 13 7 SSE 1015,0 10 -
24.10.2020 12:00:00 20,0 17,0 13 7 SE - 10 -
24.10.2020 11:00:00 19,0 16,0 8 4 SSE - 10 -

tt = temperature
td = dewpoint
ff = wind speed
dd = wind direction
ppp = reduced air pressure
vv = visibility
rr = precipitation

Next stations